Whidbey Island, WA
on Monday, November 12, 2012

Monday
Previous Day Next Day
Daily Summary
 ActualAverageRecord
Temperature
Mean Temperature °F °F  
Max Temperature 50°F 50°F 68°F (2013)
Min Temperature 46°F 38°F 30°F (1997)
Degree Days
Heating Degree Days 17    
Moisture
Dew Point 44°F   
Average Humidity 86    
Maximum Humidity 93    
Minimum Humidity 80    
Precipitation
Precipitation 0.01 in in in ()
Wind
Wind Speed 12 mph   
Max Wind Speed 22 mph   
Max Gust Speed 30 mph   
Visibility 10 miles   
Events Rain   
Averages and records for this station are not official NWS values.
Key: T is trace of precipitation, MM is missing value
Source: NWS Daily Summary
Seasonal Weather Averages
Time(PST)TemperatureDew PointHumidity Pressure Visibility Wind DirectionWind SpeedGust SpeedPrecipitationEvents Conditions
12:56 AM 46.0°F 41.0°F 83% 30.05 in 10.0 miles SE 21.9 mph 27.6 mph N/A   Overcast
1:04 AM 46.4°F 41.0°F 81% 30.04 in 10.0 miles SE 17.3 mph 29.9 mph N/A   Overcast
1:56 AM 46.0°F 41.0°F 83% 30.05 in 10.0 miles SE 17.3 mph 26.5 mph 0.00 in   Overcast
2:56 AM 46.0°F 42.1°F 86% 30.05 in 10.0 miles SE 19.6 mph 25.3 mph N/A   Overcast
3:56 AM 46.9°F 42.1°F 83% 30.06 in 10.0 miles SE 17.3 mph 24.2 mph N/A   Overcast
4:56 AM 46.9°F 42.1°F 83% 30.07 in 10.0 miles SE 13.8 mph - N/A   Overcast
5:56 AM 46.9°F 42.1°F 83% 30.09 in 10.0 miles SE 9.2 mph - N/A   Overcast
6:56 AM 46.9°F 43.0°F 86% 30.10 in 10.0 miles ESE 8.1 mph - N/A   Overcast
7:56 AM 46.9°F 43.0°F 86% 30.12 in 10.0 miles SE 9.2 mph - N/A   Overcast
8:54 AM 46.4°F 42.8°F 87% 30.12 in 10.0 miles SE 6.9 mph - N/A   Overcast
8:56 AM 46.9°F 43.0°F 86% 30.13 in 10.0 miles SE 5.8 mph - N/A   Overcast
9:56 AM 46.9°F 43.0°F 86% 30.14 in 10.0 miles ESE 6.9 mph - N/A   Overcast
10:56 AM 48.0°F 44.1°F 86% 30.17 in 10.0 miles ESE 5.8 mph - N/A   Overcast
11:56 AM 48.9°F 45.0°F 86% 30.16 in 10.0 miles SE 6.9 mph - N/A   Overcast
12:56 PM 48.9°F 45.0°F 86% 30.16 in 10.0 miles ESE 11.5 mph - N/A   Overcast
1:10 PM 48.2°F 44.6°F 87% 30.15 in 10.0 miles ESE 11.5 mph - N/A   Overcast
1:56 PM 50.0°F 44.1°F 80% 30.16 in 10.0 miles SSE 9.2 mph - N/A   Scattered Clouds
2:56 PM 48.9°F 44.1°F 83% 30.17 in 10.0 miles East 10.4 mph - N/A   Partly Cloudy
3:19 PM 48.2°F 44.6°F 87% 30.16 in 10.0 miles ESE 8.1 mph - N/A   Mostly Cloudy
3:42 PM 48.2°F 44.6°F 87% 30.16 in 10.0 miles ESE 6.9 mph - N/A   Overcast
3:56 PM 48.0°F 44.1°F 86% 30.17 in 10.0 miles East 8.1 mph - N/A   Overcast
4:05 PM 48.2°F 44.6°F 87% 30.16 in 10.0 miles ESE 9.2 mph - N/A   Mostly Cloudy
4:56 PM 46.9°F 44.1°F 90% 30.18 in 10.0 miles ESE 3.5 mph - N/A   Overcast
5:19 PM 46.4°F 44.6°F 93% 30.16 in 10.0 miles ESE 8.1 mph - 0.00 in Rain Light Rain
5:56 PM 48.0°F 44.1°F 86% 30.17 in 10.0 miles East 9.2 mph - 0.00 in Rain Light Rain
6:56 PM 48.0°F 45.0°F 89% 30.18 in 10.0 miles ESE 5.8 mph - 0.00 in   Overcast
7:10 PM 48.2°F 44.6°F 87% 30.17 in 10.0 miles East 5.8 mph - N/A   Overcast
7:48 PM 48.2°F 44.6°F 87% 30.17 in 10.0 miles East 6.9 mph - N/A   Overcast
7:56 PM 48.0°F 44.1°F 86% 30.18 in 10.0 miles East 5.8 mph - N/A   Overcast
8:12 PM 48.2°F 44.6°F 87% 30.16 in 10.0 miles East 6.9 mph - N/A   Overcast
8:25 PM 48.2°F 44.6°F 87% 30.16 in 10.0 miles East 5.8 mph - N/A   Mostly Cloudy
8:34 PM 48.2°F 44.6°F 87% 30.17 in 10.0 miles East 5.8 mph - N/A   Overcast
8:56 PM 48.9°F 45.0°F 86% 30.17 in 10.0 miles East 8.1 mph - N/A   Overcast
9:56 PM 48.9°F 45.0°F 86% 30.19 in 10.0 miles ESE 5.8 mph - N/A   Overcast
10:31 PM 48.2°F 44.6°F 87% 30.19 in 10.0 miles ESE 4.6 mph - N/A   Overcast
10:56 PM 48.0°F 45.0°F 89% 30.20 in 10.0 miles SE 4.6 mph - N/A   Overcast
11:09 PM 48.2°F 44.6°F 87% 30.19 in 10.0 miles ESE 5.8 mph - 0.00 in Rain Light Rain
11:22 PM 48.2°F 44.6°F 87% 30.19 in 10.0 miles East 5.8 mph - 0.01 in Rain Light Rain
11:56 PM 48.0°F 45.0°F 89% 30.20 in 7.0 miles ESE 5.8 mph - 0.01 in   Overcast
Moon Phase
Nov. 12 Nov. 13 Nov. 20 Nov. 28 Dec. 06
Sunrise:07:14 AM (PST) Moon Rise:05:42 AM (PST)11/12
Sunset:04:34 PM (PST) Moon Set:03:45 PM (PST)11/12

Copyright © 2014 The Weather Underground, Inc.